DNO063 LGPA-LGNX

Flight info

Callsign DNO063
Flight time 0h 10m
Altitude 3500
Route DCT
Aircraft C208/L-SDFGR/C

Departure

Time 2026-04-16 06:48
Airport Paros National Airport (LGPA)

Arrival

Time 2026-04-16 06:58
Airport Naxos Island National Airport (LGNX)
Time Latitude Longitude Altitude Speed Heading
2026-04-16 06:41 37.02090 25.11513 139 ft 0 kts 352°
2026-04-16 06:45 37.02095 25.11507 139 ft 5 kts 284°
2026-04-16 06:45 37.02097 25.11416 139 ft 15 kts 296°
2026-04-16 06:45 37.02073 25.11325 140 ft 16 kts 184°
2026-04-16 06:46 37.01948 25.11343 138 ft 17 kts 168°
2026-04-16 06:46 37.01816 25.11377 137 ft 21 kts 168°
2026-04-16 06:46 37.01688 25.11405 137 ft 17 kts 169°
2026-04-16 06:46 37.01577 25.11434 137 ft 12 kts 167°
2026-04-16 06:47 37.01521 25.11476 138 ft 10 kts 154°
2026-04-16 06:47 37.01516 25.11448 137 ft 0 kts 350°
2026-04-16 06:47 37.01547 25.11440 137 ft 20 kts 349°
2026-04-16 06:48 37.01874 25.11361 143 ft 73 kts 355°
2026-04-16 06:48 37.02390 25.11195 395 ft 78 kts
2026-04-16 06:48 37.02957 25.11073 577 ft 99 kts 341°
2026-04-16 06:48 37.03612 25.10703 875 ft 104 kts 351°
2026-04-16 06:49 37.04318 25.10504 1251 ft 104 kts 355°
2026-04-16 06:49 37.05016 25.10332 1607 ft 104 kts 355°
2026-04-16 06:49 37.05753 25.10176 1865 ft 110 kts
2026-04-16 06:49 37.06373 25.10676 2127 ft 117 kts 58°
2026-04-16 06:50 37.06629 25.11691 2401 ft 134 kts 86°
2026-04-16 06:50 37.06165 25.12763 2671 ft 151 kts 129°
2026-04-16 06:50 37.05349 25.13619 2943 ft 156 kts 137°
2026-04-16 06:50 37.04506 25.14464 3201 ft 154 kts 136°
2026-04-16 06:51 37.03668 25.15300 3437 ft 152 kts 137°
2026-04-16 06:51 37.02821 25.16151 3511 ft 161 kts 137°
2026-04-16 06:51 37.01941 25.17070 3518 ft 168 kts 136°
2026-04-16 06:51 37.01171 25.18178 3500 ft 168 kts 113°
2026-04-16 06:52 37.00773 25.19535 3511 ft 167 kts 105°
2026-04-16 06:52 37.00407 25.20923 3507 ft 170 kts 105°
2026-04-16 06:52 37.00155 25.21852 3513 ft 171 kts 105°
2026-04-16 06:52 36.99779 25.23270 3479 ft 171 kts 105°
2026-04-16 06:53 36.99406 25.24661 3399 ft 167 kts 106°
2026-04-16 06:53 36.99033 25.26025 3320 ft 165 kts 105°
2026-04-16 06:53 36.98707 25.27387 3239 ft 162 kts 97°
2026-04-16 06:53 36.98585 25.28810 3012 ft 167 kts 92°
2026-04-16 06:54 36.98492 25.30281 2764 ft 171 kts 88°
2026-04-16 06:54 36.98573 25.31757 2515 ft 167 kts 81°
2026-04-16 06:54 36.98701 25.33167 2257 ft 159 kts 74°
2026-04-16 06:54 36.99192 25.34330 1983 ft 145 kts 43°
2026-04-16 06:55 36.99941 25.35089 1716 ft 133 kts 33°
2026-04-16 06:55 37.00741 25.35620 1533 ft 124 kts 26°
2026-04-16 06:55 37.01467 25.36063 1533 ft 111 kts 26°
2026-04-16 06:55 37.02136 25.36394 1530 ft 98 kts 19°
2026-04-16 06:56 37.02750 25.36583 1584 ft 81 kts 13°
2026-04-16 06:56 37.03295 25.36666 1508 ft 74 kts
2026-04-16 06:56 37.03805 25.36694 1362 ft 74 kts
2026-04-16 06:56 37.04324 25.36706 1181 ft 74 kts
2026-04-16 06:57 37.04843 25.36717 1005 ft 74 kts
2026-04-16 06:57 37.05352 25.36720 855 ft 73 kts
2026-04-16 06:57 37.05861 25.36731 727 ft 73 kts
2026-04-16 06:57 37.06365 25.36765 575 ft 74 kts
2026-04-16 06:58 37.06889 25.36786 376 ft 77 kts
2026-04-16 06:58 37.07445 25.36803 125 ft 80 kts
2026-04-16 06:58 37.07960 25.36810 24 ft 66 kts
2026-04-16 06:58 37.08201 25.36811 28 ft 11 kts 343°
2026-04-16 06:59 37.08202 25.36817 28 ft 11 kts 178°
2026-04-16 06:59 37.08122 25.36828 28 ft 3 kts 134°
2026-04-16 06:59 37.08109 25.36892 27 ft 12 kts 147°
2026-04-16 06:59 37.08090 25.36919 27 ft 0 kts 63°